Regional Weather Roundup
Issued by NWS Little Rock, AR

Home | Current Version | Previous Version | Text Only | Print | Product List | Glossary On
Versions: 1 2 3 4 5 6 7 8 9 10 11 12 13 14 15 16 17 18 19 20 21 22 23 24 25 26 27 28 29 30 31 32 33 34 35 36 37 38 39 40 41 42 43 44 45 46 47 48 49 50
000
ASUS44 KLZK 300005
RWRLZK

WEATHER ROUNDUP FOR ARKANSAS
NATIONAL WEATHER SERVICE LITTLE ROCK AR
700 PM CDT FRI AUG 29 2014

NOTE: "FAIR" INDICATES FEW OR NO CLOUDS BELOW 12,000 FEET WITH NO
SIGNIFICANT WEATHER AND/OR OBSTRUCTIONS TO VISIBILITY.

ARZ001-003-010-029-300100-
NORTHWEST ARKANSAS

CITY           SKY/WX    TMP DP  RH WIND       PRES   REMARKS
FAYETTEVILLE   PTCLDY    77  68  73 S13       29.93S
6HR MIN TEMP:  73; 6HR MAX TEMP:  87; 6HR PCP:  0.03;

FORT SMITH     PTCLDY    79  71  76 SE5       29.89F
6HR MIN TEMP:  72; 6HR MAX TEMP:  86; 6HR PCP:  0.10;

HARRISON       CLOUDY    73  69  87 S6        29.93S
6HR MIN TEMP:  72; 6HR MAX TEMP:  84; 6HR PCP:  0.02;

BENTONVILLE    PTCLDY    81  66  61 S7        29.93S
6HR MIN TEMP:  81; 6HR MAX TEMP:  88;

ROGERS         PTCLDY    80  66  62 S15       29.93R
6HR MIN TEMP:  80; 6HR MAX TEMP:  87;

SILOAM SPGS      N/A     81  64  57 S14       29.92S
6HR MIN TEMP:  81; 6HR MAX TEMP:  86;

HIGHFILL       PTCLDY    81  66  60 S12       29.91S
6HR MIN TEMP:  81; 6HR MAX TEMP:  88;

SPRINGDALE     PTCLDY    79  66  65 S9        29.94S
$$

ARZ004-005-016-300100-
NORTH CENTRAL ARKANSAS

CITY           SKY/WX    TMP DP  RH WIND       PRES   REMARKS
BATESVILLE     MOCLDY    75  72  88 CALM      29.93S
6HR MIN TEMP:  75; 6HR MAX TEMP:  93; 6HR PCP:  0.03;

FLIPPIN        MOCLDY    75  66  73 SW6       29.91S
6HR MIN TEMP:  72; 6HR MAX TEMP:  90;

MTN HOME       MOCLDY    74  70  87 S5        29.91S
6HR MIN TEMP:  71; 6HR MAX TEMP:  90; 6HR PCP:  0.05;

$$

ARZ040-041-300100-
WEST CENTRAL ARKANSAS

CITY           SKY/WX    TMP DP  RH WIND       PRES   REMARKS
MENA           MOCLDY    81  75  83 CALM      29.93S HX  86
MOUNT IDA      CLOUDY    77  72  84 CALM      29.91R
6HR MIN TEMP:  77; 6HR MAX TEMP:  89;

$$

ARZ009-017-025-026-028-300100-
NORTHEAST ARKANSAS

CITY           SKY/WX    TMP DP  RH WIND       PRES   REMARKS
CORNING          N/A     84  70  61 S7        29.91R HX  88
JONESBORO      MOCLDY    86  71  60 S5        29.90R HX  91
6HR MIN TEMP:  86; 6HR MAX TEMP:  93;

NEWPORT        TSTM      73  72  97 SW35G49   29.95R VSB 3/4
6HR MIN TEMP:  73; 6HR MAX TEMP:  94; 6HR PCP:  0.41;

WALNUT RIDGE   CLOUDY    82  70  65 NW18G28   29.92R THUNDER HX  86
6HR MIN TEMP:  82; 6HR MAX TEMP:  91;

BLYTHEVILLE    CLEAR     83  73  72 S5        29.92R HX  89
6HR MIN TEMP:  83; 6HR MAX TEMP:  92;

$$

ARZ022-023-033-042-044-300100-
CENTRAL ARKANSAS

CITY           SKY/WX    TMP DP  RH WIND       PRES   REMARKS
LITTLE ROCK    MOCLDY    82  69  64 SE7       29.91R HX  85
6HR MIN TEMP:  81; 6HR MAX TEMP:  92; 6HR PCP: TRACE;

N LITTLE ROCK  MOCLDY    83  72  69 S6        29.91R HX  89
6HR MIN TEMP:  83; 6HR MAX TEMP:  91;

JACKSONVILLE   PTCLDY    82  72  71 S5        29.91R HX  87
6HR MIN TEMP:  80; 6HR MAX TEMP:  92; 6HR PCP:  0.16;

SEARCY         MOCLDY    75  73  93 SW5       29.95R
6HR MIN TEMP:  75; 6HR MAX TEMP:  93; 6HR PCP:  0.19;

HOT SPRINGS    CLOUDY    86  71  60 CALM      29.91R HX  91
6HR MIN TEMP:  86; 6HR MAX TEMP:  91;

RUSSELLVILLE   CLOUDY    75  72  90 SE3       29.93S
6HR MIN TEMP:  75; 6HR MAX TEMP:  89;

CLINTON        LGT RAIN  75  75 100 CALM      29.93R
$$

ARZ036-300100-
EAST ARKANSAS

CITY           SKY/WX    TMP DP  RH WIND       PRES   REMARKS
WEST MEMPHIS   PTCLDY    86  70  58 S10       29.90S HX  90
6HR MIN TEMP:  69; 6HR MAX TEMP:  92;

$$

ARZ050-053-066-070-073-300100-
SOUTHWEST ARKANSAS

CITY           SKY/WX    TMP DP  RH WIND       PRES   REMARKS
ARKADELPHIA    FAIR      86  78  76 CALM      29.90R HX  98
6HR MIN TEMP:  86; 6HR MAX TEMP:  93;

CAMDEN         MOCLDY    86  73  66 SE3       29.90R HX  93
TEXARKANA      MOCLDY    84  71  65 N6        29.90R HX  89
6HR MIN TEMP:  84; 6HR MAX TEMP:  93;

EL DORADO      PTCLDY    85  71  63 SE7       29.91R HX  90
6HR MIN TEMP:  85; 6HR MAX TEMP:  91;

DE QUEEN       MOCLDY    77  72  84 CALM      29.88R
6HR MIN TEMP:  75; 6HR MAX TEMP:  88; 6HR PCP:  0.11;

$$

ARZ056-057-069-300100-
SOUTHEAST ARKANSAS

CITY           SKY/WX    TMP DP  RH WIND       PRES   REMARKS
PINE BLUFF     PTCLDY    84  74  71 SE5       29.92R HX  91
6HR MIN TEMP:  84; 6HR MAX TEMP:  92;

STUTTGART      PTCLDY    79  73  83 SE6       29.93S
6HR MIN TEMP:  75; 6HR MAX TEMP:  91; 6HR PCP:  0.42;

MONTICELLO     MOCLDY    86  74  67 CALM      29.92R HX  94
6HR MIN TEMP:  82; 6HR MAX TEMP:  91; 6HR PCP: TRACE;


$$




USA.gov is the U.S. government's official web portal to all federal, state and local government web resources and services.